Location: ??
(35.5386°N, 139.7291°E)
Time: 03:47:01
(UTC+00:00)

IGS 5A - Pass Details

Date: 13 December 2025
Orbit: 551 x 554 km, 97.4° (Epoch: 8 January)

Event Time Altitude Azimuth Distance (km) Brightness Sun altitude
Rises 20:38:02 0° 9° (N) 2,739 6.8 -12.8°
Reaches altitude 10° 20:40:11 10° 7° (N) 1,840 5.9 -12.4°
Maximum altitude 20:44:08 71° 284° (WNW) 587 3.2 -11.6°
Drops below altitude 10° 20:48:04 10° 200° (SSW) 1,824 6.0 -10.8°
Sets 20:50:12 0° 198° (SSW) 2,713 6.9 -10.4°
